Morgantown, WV

5:10 PM EDT on March 25, 2017 (GMT -0400)
Morgantown Municipal-Hart

Weather History for KMGW - December, 1999

Change the Weather History Date:

Thursday, December 23, 1999

  Actual Average Record
Temperature  
Mean Temperature 27 °F 33 °F  
Max Temperature 33 °F 41 °F 70 °F (2015)
Min Temperature 21 °F 25 °F -3 °F (1989)
Degree Days  
Heating Degree Days 38 32  
Month to date heating degree days 675  
Since 1 July heating degree days 1723  
Cooling Degree Days 0 0  
Month to date cooling degree days 0  
Year to date cooling degree days 814  
Moisture  
Dew Point 18 °F    
Average Humidity 66    
Maximum Humidity 81    
Minimum Humidity 55    
Precipitation  
Precipitation 0.00 in 0.10 in 1.15 in (1970)
Month to date precipitation 2.22  
Year to date precipitation 41.14  
Sea Level Pressure  
Sea Level Pressure 30.25 in    
Wind  
Wind Speed 7 mph (WSW)    
Max Wind Speed 12 mph    
Max Gust Speed 21 mph    
Visibility 10 miles    
Events Snow    
T = Trace of Precipitation, MM = Missing Value Source: NWS Daily Summary

Daily Weather History Graph

Daily Weather History Graph

Search for Another Location

Airport or City:

Trip Planner

Search our weather history database for the weather conditions in past years. The results will help you decide how hot, cold, wet, or windy it might be!

Date:

Astronomy

Dec. 23, 1999 Rise Set
Actual Time 7:37 AM EST 4:59 PM EST
Civil Twilight 7:07 AM EST 5:30 PM EST
Nautical Twilight 6:33 AM EST 6:03 PM EST
Astronomical Twilight 6:00 AM EST 6:36 PM EST
Moon 6:21 PM EST (12/23) 8:21 AM EST (12/23)
Length of Visible Light 10h 22m
Length of Day
9h 21m
Full, 99% of the Moon is Illuminated
Dec 23
Full
Dec 29
Last Quarter
Jan 6
New
Jan 14
First Quarter
Jan 20
Full

Hourly Weather History & Observations

Time (EST) Temp. Windchill Dew Point Humidity Pressure Visibility Wind Dir Wind Speed Gust Speed Precip Events Conditions
12:53 AM 28.9 °F 21.9 °F 19.9 °F 69% 30.29 in 10.0 mi SSW 6.9 mph - N/A   Overcast
1:53 AM 28.9 °F - 21.0 °F 72% 30.29 in 10.0 mi Calm Calm - N/A   Overcast
2:53 AM 28.0 °F 24.2 °F 21.9 °F 78% 30.30 in 10.0 mi South 3.5 mph - N/A   Overcast
3:53 AM 28.9 °F 22.8 °F 23.0 °F 78% 30.28 in 10.0 mi Variable 5.8 mph - N/A   Overcast
4:53 AM 30.0 °F 24.1 °F 23.0 °F 75% 30.26 in 10.0 mi SW 5.8 mph - N/A   Overcast
5:53 AM 30.9 °F 24.3 °F 21.0 °F 67% 30.25 in 10.0 mi SW 6.9 mph - N/A   Overcast
6:53 AM 30.9 °F 23.5 °F 21.0 °F 67% 30.26 in 10.0 mi SW 8.1 mph - N/A   Overcast
7:53 AM 32.0 °F 23.0 °F 21.0 °F 64% 30.26 in 10.0 mi SW 11.5 mph - N/A   Overcast
8:53 AM 32.0 °F 23.6 °F 21.9 °F 66% 30.26 in 10.0 mi SW 10.4 mph - N/A   Overcast
9:53 AM 32.0 °F 24.2 °F 21.0 °F 64% 30.26 in 10.0 mi SW 9.2 mph - N/A   Overcast
10:53 AM 33.1 °F 26.1 °F 21.0 °F 61% 30.25 in 10.0 mi SW 8.1 mph - N/A   Overcast
11:53 AM 32.0 °F 24.2 °F 19.9 °F 61% 30.23 in 10.0 mi West 9.2 mph - N/A   Overcast
12:53 PM 32.0 °F 24.2 °F 19.0 °F 59% 30.20 in 10.0 mi West 9.2 mph 17.3 mph N/A   Overcast
1:53 PM 30.9 °F 21.7 °F 17.1 °F 57% 30.20 in 10.0 mi WSW 11.5 mph - N/A   Overcast
2:53 PM 30.0 °F 20.5 °F 17.1 °F 59% 30.19 in 10.0 mi WSW 11.5 mph 17.3 mph N/A   Overcast
3:53 PM 28.9 °F 19.2 °F 15.1 °F 56% 30.21 in 10.0 mi West 11.5 mph 20.7 mph N/A   Overcast
4:53 PM 28.0 °F 18.6 °F 18.0 °F 66% 30.23 in 10.0 mi West 10.4 mph 18.4 mph N/A   Overcast
5:53 PM 26.1 °F 19.4 °F 19.0 °F 75% 30.24 in 9.0 mi Variable 5.8 mph - 0.00 in Snow Light Snow
6:53 PM 25.0 °F 15.5 °F 19.9 °F 81% 30.26 in 10.0 mi West 9.2 mph - 0.00 in   Mostly Cloudy
7:53 PM 24.1 °F 15.2 °F 15.1 °F 69% 30.26 in 10.0 mi West 8.1 mph - N/A   Mostly Cloudy
8:53 PM 24.1 °F 16.0 °F 10.0 °F 55% 30.27 in 10.0 mi WNW 6.9 mph - N/A   Overcast
9:53 PM 23.0 °F 17.0 °F 10.9 °F 60% 30.27 in 10.0 mi West 4.6 mph - N/A   Partly Cloudy
10:53 PM 21.9 °F 13.4 °F 10.9 °F 63% 30.27 in 10.0 mi West 6.9 mph - N/A   Mostly Cloudy
11:53 PM 21.9 °F 15.7 °F 10.9 °F 63% 30.27 in 10.0 mi West 4.6 mph - N/A   Mostly Cloudy